Probability
0 0 0 0 0 0 0 0 0 0 0 0 0 0 0 0 0 0 0 0 1 3 5 6 11 22 31 34 35 35 30 24 17 10 7 4 1 1 1 3 3 2 1
0 0 0 0 0 0 0 0 0 0 0 0 0 0 0 0 0 0 0 0 1 2 3 5 7 15 24 30 33 35 33 27 20 15 12 7 4 3 4 6 7 5 5
0 0 0 0 0 0 0 0 0 0 0 0 0 0 0 0 0 0 0 0 0 1 1 3 4 7 14 22 27 32 35 32 25 22 19 12 8 8 10 11 11 9 9
0 0 0 0 0 0 0 0 0 0 0 0 0 0 0 0 0 0 0 0 0 0 0 1 2 4 7 13 18 24 31 34 29 26 24 18 13 13 14 16 16 15 12
0 0 0 0 0 0 0 0 0 0 0 0 0 0 0 0 0 0 0 0 0 0 0 0 1 3 5 7 11 17 24 28 27 28 27 22 17 14 14 16 19 20 19
0 0 0 0 0 0 0 0 0 0 0 0 0 0 0 0 0 0 0 0 0 0 0 0 1 2 3 4 6 11 16 19 21 24 26 23 16 13 12 12 15 19 21
0 0 0 0 0 0 0 0 0 0 0 0 0 0 0 0 0 0 0 0 0 0 0 0 0 1 3 3 4 6 11 15 15 16 20 21 17 13 13 12 12 14 15
0 0 0 0 0 0 0 0 0 0 0 0 0 0 0 0 0 0 0 0 0 0 0 0 0 1 2 3 3 4 8 13 14 15 18 21 20 17 14 13 14 12 10
0 0 0 0 0 0 0 0 0 0 0 0 0 0 0 0 0 0 0 0 0 0 0 0 0 0 1 2 3 4 6 10 14 16 18 22 24 21 16 14 14 12 10
0 0 0 0 0 0 0 0 0 0 0 0 0 0 0 0 0 0 0 0 0 0 0 0 0 0 0 1 3 3 4 6 9 11 13 18 24 22 18 15 14 12 11
0 0 0 0 0 0 0 0 0 0 0 0 0 0 0 0 0 0 0 0 0 0 0 0 0 0 0 1 2 2 3 3 3 4 7 12 18 21 20 17 14 11 10
0 0 0 0 0 0 0 0 0 0 0 0 0 0 0 0 0 0 0 0 0 0 0 0 0 0 0 0 1 1 1 1 1 2 4 8 12 17 18 15 11 8 6
0 0 0 0 0 0 0 0 0 0 0 0 0 0 0 0 0 0 0 0 0 0 0 0 0 0 0 0 0 0 0 1 2 2 4 6 8 11 14 11 7 6 4
0 0 0 0 0 0 0 0 0 0 0 0 0 0 0 0 0 0 0 0 0 0 0 0 0 0 0 0 0 0 0 1 1 2 3 5 6 7 9 9 9 9 8
0 0 0 0 0 0 0 0 0 0 0 0 0 0 0 0 0 0 0 0 0 0 0 0 0 0 0 0 0 0 0 0 0 0 1 2 4 5 5 7 9 11 12
0 0 0 0 0 0 0 0 0 0 0 0 0 0 0 0 0 0 0 0 0 0 0 0 0 0 0 0 0 0 0 0 0 0 0 0 1 2 2 3 6 9 11
0 0 0 0 0 0 0 0 0 0 0 0 0 0 0 0 0 0 0 0 0 0 0 0 0 0 0 0 0 0 0 0 0 0 0 0 0 1 2 2 4 6 7
0 0 0 0 0 0 0 0 0 0 0 0 0 0 0 0 0 0 0 0 0 0 0 0 0 0 0 0 0 0 0 0 0 0 0 0 0 1 2 4 6 8 8
0 0 0 0 0 0 0 0 0 0 0 0 0 0 0 0 0 0 0 0 0 0 0 0 0 0 0 0 0 0 0 0 0 0 0 0 0 0 1 3 7 9 10
0 0 0 0 0 0 0 0 0 0 0 0 0 0 0 0 0 0 0 0 0 0 0 0 0 0 0 0 0 0 0 0 0 0 0 0 0 0 0 2 5 8 9
0 0 0 0 0 0 0 0 0 0 0 0 0 0 0 0 0 0 0 0 0 0 0 0 0 0 0 0 0 0 0 0 0 0 0 0 0 0 0 1 3 4 5
0 0 0 0 0 0 0 0 0 0 0 0 0 0 0 0 0 0 0 0 0 0 0 0 0 0 0 0 0 0 0 0 0 0 0 0 0 0 0 0 1 1 2
0 0 0 0 0 0 0 0 0 0 0 0 0 0 0 0 0 0 0 0 0 0 0 0 0 0 0 0 0 0 0 0 0 0 0 0 0 0 0 0 0 0 1
0 0 0 0 0 0 0 0 0 0 0 0 0 0 0 0 0 0 0 0 0 0 0 0 0 0 0 0 0 0 0 0 0 0 0 0 0 0 0 0 0 0 1
0 0 0 0 0 0 0 0 0 0 0 0 0 0 0 0 0 0 0 0 0 0 0 0 0 0 0 0 0 0 0 0 0 0 0 0 0 0 0 0 0 0 0
0 0 0 0 0 0 0 0 0 0 0 0 0 0 0 0 0 0 0 0 0 0 0 0 0 0 0 0 0 0 0 0 0 0 0 0 0 0 0 0 0 0 0
Wind_Speed
4 4 5 6 7 8 9 9 9 9 8 7 7 7 7 6 6 5 6 6 6 6 7 6 6 5 6 7 8 7 7 5 4 4 4 5 8 8 7 7 7 8 8
5 4 6 6 7 8 9 9 9 9 9 7 7 6 7 6 6 5 6 6 6 6 6 6 5 6 6 7 8 8 6 5 6 4 4 4 5 6 9 8 7 9 8
7 6 7 7 7 8 9 8 9 9 8 8 6 6 5 5 5 6 6 6 7 6 6 6 6 6 6 6 7 8 9 6 6 6 5 4 6 4 6 10 9 9 7
5 5 6 7 7 8 8 8 8 9 8 8 7 9 7 7 7 6 6 7 6 6 5 6 7 7 6 7 8 8 8 8 6 6 6 5 2 4 5 6 8 10 9
4 5 5 6 7 7 7 7 8 8 8 8 7 8 7 7 7 7 7 7 6 6 6 6 6 7 6 7 7 7 9 8 8 6 6 6 4 6 4 5 6 7 8
3 4 4 5 5 6 5 6 6 7 7 7 7 8 9 9 9 9 8 7 6 5 6 6 6 6 6 7 7 7 9 9 10 8 7 6 6 6 6 5 6 6 7
4 4 4 5 5 6 6 6 6 6 7 7 7 7 8 8 8 9 8 8 6 6 7 6 6 6 6 7 7 7 8 10 11 10 8 7 7 5 5 5 4 4 4
4 4 4 5 5 5 5 6 6 6 6 7 7 7 7 6 6 8 8 7 6 7 8 7 7 7 6 6 6 6 8 8 9 11 10 8 8 7 7 6 4 4 5
4 4 4 5 5 5 5 5 6 6 6 6 7 7 7 7 8 8 8 7 7 7 8 7 7 6 6 6 6 5 7 7 7 8 9 8 7 7 7 7 6 6 6
4 4 4 5 5 5 5 5 5 6 6 6 6 6 7 7 7 8 8 9 9 8 8 7 7 6 6 6 5 5 5 6 6 6 8 8 7 7 7 8 7 7 6
4 4 4 4 5 5 5 5 5 5 5 6 6 7 7 7 8 7 8 8 8 9 8 7 7 6 6 6 5 5 5 6 6 6 8 8 8 7 7 7 8 7 7
5 5 5 5 5 5 5 5 5 5 5 5 6 6 6 7 7 8 8 9 8 8 8 8 7 6 6 6 5 5 5 5 6 7 7 8 7 9 8 7 9 8 7
5 5 5 5 5 5 5 5 5 4 4 4 6 6 6 7 8 8 8 9 9 8 8 8 8 7 6 5 5 5 5 6 6 6 7 7 7 8 7 9 8 7 7
6 6 5 5 5 5 5 5 4 3 4 4 5 6 7 7 7 8 8 8 9 9 8 8 8 7 7 6 6 6 6 5 6 6 6 7 7 8 9 8 9 8 7
6 6 6 5 5 5 5 4 4 3 3 4 4 5 6 6 7 7 8 8 8 8 8 8 8 7 6 6 8 7 6 5 6 6 6 6 7 8 7 7 8 9 7
5 5 6 6 6 5 5 4 4 3 3 4 4 5 5 6 6 7 7 8 7 8 8 7 7 7 6 9 10 9 7 6 5 5 5 5 7 8 10 10 10 10 10
4 5 5 5 5 5 4 4 4 3 4 4 4 4 5 6 6 7 7 7 7 7 8 7 7 7 7 10 10 10 8 6 5 5 5 4 4 6 7 9 11 12 12
4 5 5 5 5 5 4 4 4 4 5 5 4 4 5 5 6 6 7 7 7 7 7 7 7 7 7 10 11 12 8 5 5 5 5 5 5 5 6 7 8 9 10
4 4 4 4 5 4 5 5 5 5 5 5 5 4 5 5 6 6 7 6 7 7 7 7 7 7 7 9 12 13 6 4 4 4 4 5 5 3 5 7 8 8 7
3 4 4 5 5 5 4 6 6 6 5 5 5 5 5 5 6 6 7 6 6 6 7 6 7 7 7 8 11 12 5 5 4 3 3 3 4 4 5 7 7 7 6
3 3 4 5 5 4 5 7 7 7 5 5 5 6 6 6 6 6 6 6 6 6 6 7 6 6 6 7 8 10 6 5 5 4 4 2 2 3 4 6 5 5 5
3 3 4 4 4 4 6 8 8 7 5 5 7 7 7 6 5 6 6 6 6 6 6 6 6 4 4 4 6 8 7 8 5 4 4 2 2 2 2 2 3 6 5
4 4 4 5 4 4 6 8 8 7 6 7 8 8 8 7 7 7 6 6 5 5 6 5 5 5 4 3 4 5 6 6 4 3 4 4 3 1 1 4 5 5 4
6 5 5 5 6 5 5 7 8 7 8 9 9 8 8 8 7 6 6 6 5 5 5 5 5 5 5 4 4 4 3 3 2 2 1 2 3 3 4 4 3 2 2
7 6 6 6 8 8 7 7 8 8 9 10 9 9 9 8 8 7 6 7 6 5 6 6 5 5 5 4 6 5 5 5 4 4 2 1 1 1 2 2 3 3 3
8 8 8 8 9 9 9 9 9 9 9 9 9 7 7 7 7 7 7 9 10 8 10 10 9 7 6 5 5 6 6 6 6 4 2 1 0 1 1 2 2 2 3
Wind_Direction
328 341 335 336 335 341 343 346 345 346 343 340 335 334 333 326 324 320 317 307 298 289 275 271 264 254 248 242 233 222 216 211 202 216 235 239 238 236 223 229 221 214 203
315 335 333 341 340 342 344 343 347 348 347 342 330 324 321 317 322 319 318 313 303 296 283 271 265 256 253 248 237 225 218 208 194 199 210 223 223 233 227 218 222 220 197
312 330 336 337 340 345 344 341 344 345 349 343 336 331 327 315 328 332 326 319 310 300 292 287 279 270 259 249 238 227 220 213 203 203 203 209 215 199 218 218 213 218 204
296 318 325 333 340 345 341 338 346 347 350 344 345 343 338 336 333 328 324 318 313 304 294 285 278 272 264 257 246 231 226 218 211 208 219 233 236 198 200 212 217 213 210
293 312 324 330 334 341 339 337 344 347 350 346 344 335 340 336 331 331 331 325 321 314 306 296 285 275 266 260 257 252 235 226 219 209 203 216 229 232 216 206 204 210 214
281 298 314 318 330 339 338 336 339 346 346 342 341 343 341 338 337 339 337 330 324 318 318 307 290 280 273 266 260 255 245 236 228 220 211 204 202 210 214 220 208 209 212
283 298 312 319 329 334 336 331 336 341 344 341 343 345 345 338 337 336 335 331 328 324 324 315 300 291 282 276 269 258 250 240 234 228 222 218 217 207 211 222 217 216 208
279 293 304 309 312 320 327 328 332 336 339 338 342 343 343 336 338 338 334 331 326 323 323 315 306 301 291 280 270 263 255 244 237 233 228 223 222 214 208 210 207 213 214
273 281 292 298 302 308 319 320 321 328 335 335 336 338 341 341 339 337 336 333 327 323 324 316 308 303 295 284 275 264 259 255 244 238 232 227 222 219 215 211 209 210 216
263 272 282 288 292 299 305 306 308 318 326 329 333 333 334 336 335 334 338 336 332 330 323 320 315 307 300 291 280 270 265 256 248 241 235 228 222 218 215 212 210 214 219
259 271 282 287 285 284 287 295 302 311 322 327 330 329 333 334 333 337 339 335 334 332 328 325 322 317 307 299 287 277 268 260 253 243 237 231 223 217 214 211 209 212 214
253 263 274 281 278 282 292 297 305 313 320 323 325 328 330 333 334 340 339 337 338 336 332 332 329 325 316 305 294 286 279 272 261 251 243 235 224 218 215 211 211 210 209
243 254 262 272 279 283 290 293 300 307 315 318 322 327 334 339 339 340 339 338 339 338 337 337 335 330 322 312 304 296 286 275 269 258 247 240 231 223 216 212 210 208 207
242 252 262 267 270 276 283 290 299 297 303 312 320 330 338 339 336 340 339 339 342 341 341 340 337 335 331 326 323 309 295 283 274 264 252 246 238 233 223 216 211 205 203
242 248 257 269 269 270 277 284 291 286 293 306 319 332 334 334 332 335 335 339 342 340 341 339 339 339 334 340 335 320 303 288 278 267 255 250 248 251 242 228 213 207 203
247 251 255 262 267 270 280 291 285 279 284 301 320 330 323 329 329 331 334 338 339 340 342 339 340 339 343 342 328 317 308 295 284 275 265 250 235 235 236 238 232 220 210
256 254 257 263 268 276 289 291 292 285 278 292 306 314 318 323 328 331 332 332 333 339 337 338 338 335 344 339 333 327 309 300 293 284 276 264 250 238 235 222 220 220 217
257 252 256 260 260 260 265 274 267 266 277 289 296 304 309 315 321 326 329 329 332 335 330 332 332 329 336 340 333 322 302 298 292 287 281 271 265 255 251 232 222 219 212
271 266 268 266 265 266 271 268 263 262 270 279 286 295 301 309 314 320 324 331 329 326 324 330 328 327 332 346 336 325 308 299 293 287 289 287 272 267 258 243 227 218 209
280 270 261 256 259 261 261 265 271 269 270 271 275 283 292 298 303 312 318 321 318 317 316 321 321 325 325 346 338 331 312 308 307 297 288 289 289 282 256 242 224 211 194
305 281 265 261 268 271 260 264 274 276 278 270 267 268 271 278 290 299 304 306 311 314 314 314 314 319 325 331 340 338 321 320 314 308 300 297 293 290 267 250 226 191 176
337 306 283 278 276 270 264 270 277 282 277 262 257 260 264 269 275 279 289 298 305 304 307 311 322 321 323 328 338 337 331 324 311 310 310 328 354 315 284 223 143 142 154
350 330 307 301 297 282 273 279 288 288 272 261 258 261 263 260 263 270 277 286 291 295 306 314 318 323 327 323 310 313 319 324 318 336 4 7 11 11 110 119 127 150 154
1 349 334 323 322 320 303 294 300 292 275 267 265 263 262 263 261 258 266 274 285 290 297 306 312 316 315 326 335 327 312 295 293 320 30 65 58 60 74 99 110 110 119
7 2 354 343 336 334 330 325 317 304 287 278 271 267 263 264 267 260 254 261 266 271 278 294 298 303 306 344 344 323 325 332 339 325 305 322 77 94 89 82 86 98 115
15 13 8 357 350 349 349 346 337 319 302 294 290 282 274 265 261 265 258 229 236 242 236 247 267 278 271 293 296 299 306 311 310 296 275 258 140 116 122 119 118 122 128